Regional Weather Roundup
Issued by NWS

Home | Current Version | Previous Version | Text Only | Print | Product List | Glossary On
Versions: 1 2 3 4 5 6 7 8 9 10 11 12 13 14 15 16 17 18 19 20 21 22 23 24 25 26 27 28 29 30 31 32 33 34 35 36 37 38 39 40 41 42 43 44 45 46 47 48 49 50
041
ASUS43 KLSX 190157
RWRMO

WEATHER SUMMARY FOR MISSOURI
NATIONAL WEATHER SERVICE SPRINGFIELD MO
800 PM CST THU JAN 18 2018

NOTE: "FAIR" INDICATES FEW OR NO CLOUDS BELOW 12,000 FEET WITH NO
       SIGNIFICANT WEATHER AND/OR OBSTRUCTIONS TO VISIBILITY.
       CURRENT SKY AND/OR WEATHER CONDITIONS ARE NOT AVAILABLE FOR
       CHILLICOTHE AND FARMINGTON.

MOZ001>031-035>038-043-044-053-054-190300-
...NORTHERN AND WESTERN MISSOURI...

CITY           SKY/WX    TMP DP  RH WIND       PRES   REMARKS
KANSAS CTY INT CLOUDY    35  22  58 S17       30.04F WCI  25
LEE`S SUMMIT   CLOUDY    34  22  61 S14       30.08F WCI  25
ST JOSEPH      CLOUDY    32  25  75 S7        30.03F WCI  26
CHILLICOTHE      N/A     32  21  64 S9        30.07F WCI  24

$$
MOZ066>068-077>081-088>096-101>105-190300-
...SOUTHWEST MISSOURI...

CITY           SKY/WX    TMP DP  RH WIND       PRES   REMARKS
SPRINGFIELD    CLOUDY    34  18  52 S13       30.17F WCI  25
JOPLIN         CLOUDY    35  17  47 S12       30.19F WCI  27
BRANSON        PTCLDY    36   5  27 S7        30.22F WCI  30

$$
MOZ032>034-039>042-045>050-055>058-069>072-190300-
...CENTRAL MISSOURI...

CITY           SKY/WX    TMP DP  RH WIND       PRES   REMARKS
COLUMBIA       NOT AVBL
JEFFERSON CITY CLOUDY    38  19  46 SE5       30.16S
ROLLA          CLEAR     34  17  50 S13       30.17S WCI  25
SEDALIA        CLOUDY    37  23  56 S13       30.12S WCI  29
WARRENSBURG    PTCLDY    34  21  60 S12       30.11S WCI  25

$$
MOZ051-052-059>065-190300-
...EAST CENTRAL MISSOURI...

CITY           SKY/WX    TMP DP  RH WIND       PRES   REMARKS
ST LOUIS INTL  PTCLDY    40  17  39 SW13      30.17R

$$
MOZ072>076-082>087-097>100-106>115-190300-
...SOUTH CENTRAL AND SOUTHEAST MISSOURI...

CITY           SKY/WX    TMP DP  RH WIND       PRES   REMARKS
CAPE GIRARDEAU FAIR      26  17  68 SW14      30.31F WCI  14
POPLAR BLUFF   FAIR      26  18  71 S7        30.31S WCI  18
WEST PLAINS    CLOUDY    33  11  39 S10       30.21F WCI  25

$$



USA.gov is the U.S. government's official web portal to all federal, state and local government web resources and services.